Location: アルンシュタイン
(50.0000°N, 10.0000°E)
Time: 19:44:51
(UTC+02:00)

Tiros 1 - Visible Passes

Search period start: 11 September 2024 00:00
Search period end: 21 September 2024 00:00
Orbit: 623 x 655 km, 48.4° (Epoch: 10 September)

Date Brightness Start Highest point End Pass type
(mag) Time Alt. Az. Time Alt. Az. Time Alt. Az.
11 Sep 7.2 20:22:15 10° WSW 20:26:51 69° S 20:31:30 10° E visible
11 Sep 7.1 22:04:10 10° W 22:08:46 65° SSW 22:09:00 64° S visible
11 Sep 9.9 23:46:18 10° W 23:46:29 11° W 23:46:29 11° W visible
12 Sep 7.1 20:45:43 10° W 20:50:20 74° S 20:53:48 18° E visible
12 Sep 7.9 22:27:40 10° W 22:31:17 43° SW 22:31:17 43° SW visible
13 Sep 7.2 21:09:11 10° W 21:13:47 68° S 21:16:04 29° ESE visible
13 Sep 8.9 22:51:17 10° W 22:53:33 24° WSW 22:53:33 24° WSW visible
14 Sep 7.4 21:32:40 10° W 21:37:11 53° SSW 21:38:20 41° SSE visible
14 Sep 9.7 23:15:11 10° W 23:15:50 13° WSW 23:15:50 13° WSW visible
15 Sep 7.2 20:14:11 10° W 20:18:47 70° S 20:23:09 11° ESE visible
15 Sep 8.0 21:56:14 10° W 22:00:28 36° SSW 22:00:38 36° SSW visible
16 Sep 7.5 20:37:39 10° W 20:42:10 56° SSW 20:45:28 18° ESE visible
16 Sep 8.9 22:20:02 10° W 22:22:58 22° SW 22:22:58 22° SW visible
17 Sep 8.0 21:01:09 10° W 21:05:28 39° SSW 21:07:50 23° SSE visible
17 Sep 9.7 22:44:40 10° WSW 22:45:19 11° WSW 22:45:19 11° WSW visible
18 Sep 8.7 21:24:51 10° W 21:28:37 25° SSW 21:30:14 20° S visible
19 Sep 8.0 20:06:03 10° W 20:10:25 43° SSW 20:14:48 10° SE visible
19 Sep 9.3 21:49:09 10° WSW 21:51:37 14° SW 21:52:42 13° SSW visible
20 Sep 8.7 20:29:40 10° W 20:33:35 28° SSW 20:37:30 10° SSE visible
